Home   Weather   Bourges   Past weeks

Flag for France Past Weather in Bourges, Centre-Val de Loire, France — Yesterday and Last 2 Weeks

Now
50 °F

Clear.


Feels Like: 50 °F
Forecast: 55 / 69 °F
Wind: 2 mph from Southeast

Location: Bourges

Current Time: Sep 29, 2016 at 7:15:52 AM

Latest Report: Sep 29, 2016 at 6:00 AM


Visibility: 13 mi

Pressure: 30.28 "Hg

Humidity: 87%

Dew Point: 46 °F

Location of BourgesLocation

Past Weather in Bourges — Graph

°F

Bourges Temperature Yesterday

Maximum temperature yesterday: 77 °F (at 5:00 PM)
Minimum temperature yesterday: 48 °F (at 7:00 AM)
Average temperature yesterday: 62 °F

High & Low Weather Summary for the Past Weeks

 TemperatureHumidityPressure
High80 °F (Sep 24, 5:00 PM)97% (Sep 15, 12:00 AM)30.45 "Hg (Sep 15, 12:00 AM)
Low46 °F (Sep 22, 8:00 AM)27% (Sep 24, 4:00 PM)29.82 "Hg (Sep 15, 3:00 AM)
Average60 °F72%30.13 "Hg
* Reported Sep 14 6:00 AM — Sep 29 6:00 AM, Bourges, Weather by CustomWeather, © 2016

Note: Actual official high and low records may vary slightly from our data, if they occured in-between our weather recording intervals... More about our weather records

Advertising

Bourges Weather History for the Previous 24 Hours

Scroll right to see more
 ConditionsComfort  
Time TempWeatherWind HumidityBarometerVisibility
6:00 AM
Thu, Sep 29
50 °FClear.2 mph87%30.28 "Hg12 mi
5:00 AM52 °FCool.3 mph86%30.29 "Hg12 mi
4:00 AM53 °FCool.2 mph85%30.31 "Hg12 mi
3:00 AM54 °FCool.2 mph82%30.33 "Hg12 mi
2:00 AM55 °FCool.1 mph81%30.33 "Hg12 mi
1:00 AM57 °FCool.3 mph77%30.34 "Hg12 mi
12:00 AM58 °FCool.3 mph75%30.35 "Hg12 mi
11:00 PM
Wed, Sep 28
62 °FCool.No wind72%30.36 "Hg12 mi
10:00 PM65 °FMild.1 mph64%30.36 "Hg12 mi
9:00 PM68 °FMild.2 mph58%30.36 "Hg12 mi
8:00 PM70 °FMild.3 mph53%30.36 "Hg12 mi
6:00 PM77 °FMild.5 mph41%30.35 "Hg12 mi
5:00 PM77 °FScattered clouds.6 mph38%30.35 "Hg22 mi
4:00 PM76 °FScattered clouds.6 mph36%30.36 "Hg22 mi
3:00 PM77 °FPartly sunny.6 mph35%30.37 "Hg22 mi
2:00 PM74 °FPartly sunny.6 mph35%30.40 "Hg22 mi
1:00 PM72 °FMild.5 mph38%30.41 "Hg12 mi
12:00 PM69 °FScattered clouds.3 mph45%30.43 "Hg22 mi
11:00 AM65 °FPartly sunny.2 mph54%30.45 "Hg19 mi
10:00 AM58 °FPassing clouds.3 mph66%30.44 "Hg19 mi
9:00 AM51 °FScattered clouds.2 mph78%30.44 "Hg19 mi
8:00 AM48 °FPartly sunny.3 mph81%30.44 "Hg19 mi
7:00 AM48 °FOvercast.3 mph83%30.42 "Hg19 mi
Weather by CustomWeather, © 2016

See weather overviewHow to use our weather pages